[[{"header":{"parameterUnit":"m.s-1","parameterCategory":1,"la1":30.2991,"la2":30.254,"lo1":-89.0895,"lo2":-89.0444,"dy":0.0017,"dx":0.0017,"nx":28,"ny":28,"refTime":"2024-07-07T21:00:00:Z","depth":0,"parameterNumber":2,"parameterNumberName":"U-component_of_WINDS"},"data":[0,0,0,0,0,0,0,0,0,0,0,0,0,0,0,0,0,0,0,0,0,0,0,0,0,0,0,0,0,0,0,0,0,0,0,0,0,0,0,0,0,0,0,0,0,0,0,0,0,0,0,0,0,0,0,0,0,0,-0.9422,-0.9422,0,-0.9435,-0.9435,-0.9435,-0.9452,-0.9452,-0.9453,-0.9453,-0.9467,-0.9467,-0.9467,0,0,0,0,0,0,0,0,0,0,0,0,0,-0.9412,-0.9413,-0.9422,-0.9422,-0.9422,-0.9435,-0.9435,-0.9435,-0.9452,-0.9453,-0.9453,-0.9453,-0.9467,-0.9467,-0.9467,0,0,0,0,0,0,0,0,0,0,0,0,0,-0.942,-0.9413,-0.9422,-0.9432,-0.9433,-0.9435,-0.9435,-0.9435,-0.9452,-0.9453,-0.9453,-0.9453,-0.9467,-0.9467,-0.9467,-0.946,0,0,-0.9468,-0.9468,0,0,0,0,0,0,0,0,-0.942,-0.942,-0.943,-0.9431,-0.9433,-0.9442,-0.9437,-0.9443,-0.9452,-0.9445,-0.9453,-0.9454,-0.9459,-0.9459,-0.9461,-0.946,-0.9461,-0.9468,-0.9468,-0.9468,-0.9468,0,0,0,0,0,0,0,-0.9419,-0.942,-0.9427,-0.9431,-0.9432,-0.9436,-0.9438,-0.9438,-0.9449,-0.9446,-0.9447,-0.9448,-0.9459,-0.9461,-0.9461,-0.9461,-0.9468,-0.9468,-0.9468,-0.9468,-0.9455,-0.9454,0,0,0,0,0,0,-0.9417,-0.9419,-0.9427,-0.9427,-0.9427,-0.9436,-0.9438,-0.9439,-0.9449,-0.9451,-0.9448,-0.9449,-0.946,-0.9461,-0.9462,-0.9454,-0.9468,-0.9468,-0.9468,-0.9455,-0.9455,-0.9454,0,0,0,0,0,0,-0.9417,-0.9417,-0.9426,-0.9424,-0.9425,-0.9436,-0.9437,-0.9439,-0.944,-0.9451,-0.9453,-0.9447,-0.9461,-0.9462,-0.946,-0.9454,-0.9468,-0.9468,-0.9456,-0.9455,-0.9455,-0.9437,0,0,0,0,0,0,-0.9416,-0.9417,-0.9414,-0.9423,-0.9425,-0.9424,-0.9436,-0.9439,-0.944,-0.9442,-0.9451,-0.9453,-0.9461,-0.946,-0.946,-0.9455,-0.9468,-0.9456,-0.9456,-0.9455,-0.9438,-0.9436,-0.9434,0,0,0,0,0,-0.9416,-0.9409,-0.9414,-0.9415,-0.9422,-0.9423,-0.9424,-0.9434,-0.944,-0.9437,-0.9444,-0.9453,-0.9455,-0.9459,-0.946,-0.9455,-0.9457,-0.9456,-0.9455,-0.9439,-0.9436,-0.9434,0,0,0,0,0,0,-0.94,-0.9411,-0.9416,-0.9412,-0.9417,-0.9426,-0.9423,-0.943,-0.9433,-0.9435,-0.9447,-0.9448,-0.9445,-0.945,-0.9455,-0.9448,-0.9457,-0.9456,-0.9445,-0.9442,-0.944,-0.9439,-0.9469,0,0,0,0,0,-0.9395,-0.9396,-0.9405,-0.9401,-0.9403,-0.9412,-0.9414,-0.942,-0.9425,-0.9427,-0.9434,-0.9439,-0.9441,-0.9442,-0.9444,-0.9439,-0.9441,-0.9435,-0.9433,-0.9431,-0.943,-0.9427,-0.9425,-0.9451,-0.9451,-0.9451,0,0,-0.9387,-0.9393,-0.9393,-0.9398,-0.9402,-0.9402,-0.9414,-0.9414,-0.9414,-0.9428,-0.9426,-0.9431,-0.9437,-0.9434,-0.9432,-0.9437,-0.9424,-0.943,-0.9428,-0.9429,-0.9426,-0.9424,-0.9421,-0.945,-0.945,-0.945,0,0,-0.9372,-0.9376,-0.9373,-0.9377,-0.9383,-0.9389,-0.9388,-0.9397,-0.94,-0.9399,-0.9409,-0.941,-0.9413,-0.9416,-0.9419,-0.9404,-0.9412,-0.9405,-0.9393,-0.939,-0.9388,-0.9386,-0.9381,-0.9379,-0.9404,-0.9404,-0.9404,0,-0.9361,-0.9361,-0.9371,-0.9369,-0.9371,-0.9383,-0.938,-0.9383,-0.939,-0.9391,-0.9396,-0.9399,-0.9404,-0.9402,-0.9398,-0.9399,-0.9399,-0.9404,-0.9388,-0.9386,-0.9385,-0.9379,-0.9377,-0.9403,-0.9403,-0.9403,-0.9403,0,-0.9347,-0.9347,-0.9343,-0.9349,-0.935,-0.9348,-0.9357,-0.9357,-0.9364,-0.937,-0.9368,-0.9374,-0.9378,-0.9378,-0.9384,-0.9376,-0.9378,-0.9386,-0.9395,-0.9381,-0.9376,-0.9374,-0.9401,-0.9402,-0.9402,-0.9402,0,0,-0.9323,-0.9333,-0.9331,-0.9334,-0.9341,-0.9341,-0.9339,-0.9342,-0.9342,-0.9346,-0.9344,-0.9346,-0.9353,-0.9355,-0.9362,-0.9359,-0.9347,-0.9367,-0.9367,-0.9363,-0.9338,-0.9332,-0.933,-0.9352,-0.9352,-0.9352,-0.9337,0,-0.9309,-0.9306,-0.9314,-0.9309,-0.9309,-0.932,-0.9318,-0.9322,-0.9327,-0.9328,-0.9334,-0.9335,-0.9343,-0.9345,-0.9343,-0.9349,-0.9342,-0.935,-0.9351,-0.9351,-0.9349,-0.9327,-0.9322,-0.9308,-0.9335,-0.9335,-0.9335,0,-0.9292,-0.9295,-0.929,-0.9296,-0.9297,-0.9295,-0.9298,-0.9298,-0.9303,-0.9307,-0.9309,-0.9317,-0.9316,-0.9325,-0.9323,-0.9328,-0.9329,-0.9332,-0.9332,-0.9332,-0.9342,-0.9327,-0.9303,-0.9301,-0.9332,-0.9332,-0.9332,0,-0.9275,-0.9277,-0.9274,-0.9276,-0.9284,-0.9282,-0.9285,-0.929,-0.9291,-0.9294,-0.9295,-0.9297,-0.9299,-0.9301,-0.9309,-0.9315,-0.9306,-0.9316,-0.9309,-0.9309,-0.9307,-0.9307,-0.9283,-0.9307,-0.9307,-0.9307,-0.9307,0,-0.9259,-0.9255,-0.9266,-0.9264,-0.926,-0.927,-0.9266,-0.927,-0.9274,-0.9273,-0.9283,-0.9282,-0.9293,-0.9293,-0.93,-0.9297,-0.9297,-0.9301,-0.9302,-0.93,-0.9299,-0.93,-0.9302,-0.9307,-0.9307,-0.9307,-0.9307,0,-0.9239,-0.9246,-0.9243,-0.9251,-0.9252,-0.9249,-0.9256,-0.9254,-0.926,-0.9258,-0.9259,-0.9267,-0.9268,-0.9276,-0.9279,-0.9283,-0.9278,-0.9281,-0.9276,-0.9277,-0.927,-0.927,-0.9246,-0.9243,-0.9269,-0.9269,-0.9269,0,-0.9228,-0.9226,-0.9232,-0.9232,-0.9235,-0.9235,-0.9236,-0.9244,-0.9245,-0.925,-0.9247,-0.9249,-0.925,-0.9251,-0.9257,-0.9259,-0.9263,-0.9254,-0.9263,-0.9261,-0.9263,-0.9263,-0.9262,-0.9252,-0.9252,-0.9252,-0.9252,0,-0.9209,-0.9212,-0.9213,-0.9214,-0.9215,-0.9217,-0.9219,-0.9219,-0.9228,-0.9228,-0.9229,-0.923,-0.9232,-0.9233,-0.9236,-0.924,-0.9247,-0.9248,-0.9247,-0.9244,-0.9241,-0.9243,-0.9271,-0.9249,-0.9249,-0.925,-0.925,-0.925,-0.9193,-0.9191,-0.9195,-0.9195,-0.9198,-0.92,-0.9199,-0.9203,-0.9204,-0.9206,-0.9211,-0.9211,-0.9215,-0.9219,-0.9222,-0.9222,-0.9226,-0.9224,-0.9224,-0.9223,-0.9222,-0.9241,-0.9222,-0.9223,-0.9223,-0.9223,-0.9223,0,-0.9174,-0.9177,-0.9177,-0.918,-0.918,-0.9186,-0.9189,-0.9189,-0.9188,-0.9191,-0.9192,-0.9192,-0.9193,-0.9199,-0.9201,-0.9199,-0.9203,-0.9199,-0.92,-0.92,-0.9218,-0.9219,-0.9197,-0.9197,-0.9197,-0.9197,-0.9197,-0.9197,-0.9164,-0.9161,-0.9164,-0.9162,-0.9165,-0.9164,-0.9165,-0.9167,-0.9169,-0.9169,-0.917,-0.9173,-0.9178,-0.9179,-0.918,-0.9182,-0.9182,-0.9178,-0.9181,-0.9197,-0.9199,-0.9202,-0.9203,-0.9178,-0.9178,-0.9163,-0.9163,-0.9163]},{"header":{"parameterUnit":"m.s-1","parameterCategory":1,"la1":30.2991,"la2":30.254,"lo1":-89.0895,"lo2":-89.0444,"dy":0.0017,"dx":0.0017,"nx":28,"ny":28,"refTime":"2024-07-07T21:00:00:Z","depth":0,"parameterNumber":3,"parameterNumberName":"V-component_of_WINDS"},"data":[0,0,0,0,0,0,0,0,0,0,0,0,0,0,0,0,0,0,0,0,0,0,0,0,0,0,0,0,0,0,0,0,0,0,0,0,0,0,0,0,0,0,0,0,0,0,0,0,0,0,0,0,0,0,0,0,0,0,7.7844,7.7845,0,7.7864,7.7864,7.7864,7.7757,7.7754,7.7751,7.7748,7.7765,7.7768,7.7771,0,0,0,0,0,0,0,0,0,0,0,0,0,7.7712,7.7715,7.7844,7.7845,7.7845,7.7864,7.7864,7.7864,7.7758,7.7754,7.775,7.7747,7.7764,7.7768,7.7771,0,0,0,0,0,0,0,0,0,0,0,0,0,7.7754,7.7716,7.7844,7.7794,7.779,7.7864,7.7864,7.7864,7.7758,7.7754,7.7749,7.7745,7.7762,7.7767,7.7772,7.7894,0,0,7.7787,7.7789,0,0,0,0,0,0,0,0,7.7752,7.7759,7.7801,7.7798,7.7793,7.7803,7.7823,7.7874,7.776,7.777,7.7748,7.7743,7.7781,7.7784,7.7798,7.7895,7.7895,7.7787,7.779,7.7793,7.7794,0,0,0,0,0,0,0,7.7749,7.7758,7.7852,7.7802,7.7797,7.7769,7.777,7.7832,7.7801,7.7769,7.7761,7.7765,7.7778,7.7793,7.7797,7.7896,7.7787,7.7792,7.7795,7.7797,7.8091,7.8096,0,0,0,0,0,0,7.7753,7.7756,7.7851,7.7852,7.7761,7.7776,7.7777,7.7805,7.78,7.7795,7.7769,7.776,7.7787,7.7792,7.7797,7.7938,7.7793,7.7797,7.78,7.8087,7.8093,7.8098,0,0,0,0,0,0,7.7751,7.7763,7.785,7.7802,7.7811,7.7783,7.7815,7.7807,7.7822,7.78,7.7794,7.7791,7.7784,7.7791,7.787,7.7937,7.7799,7.7804,7.8081,7.8088,7.8095,7.8221,0,0,0,0,0,0,7.7748,7.7763,7.781,7.7804,7.7814,7.7924,7.7819,7.7811,7.7832,7.782,7.7819,7.7814,7.7781,7.7864,7.7875,7.7941,7.7808,7.8075,7.8084,7.8093,7.8211,7.8232,7.825,0,0,0,0,0,7.7743,7.7844,7.7812,7.7825,7.7872,7.7929,7.7934,7.7894,7.7838,7.7883,7.7869,7.7814,7.7929,7.7873,7.7885,7.7953,7.807,7.8082,7.8092,7.8202,7.8227,7.8249,0,0,0,0,0,0,7.7857,7.7842,7.7807,7.7909,7.7921,7.791,7.7967,7.7923,7.795,7.7938,7.7887,7.7888,7.7976,7.7973,7.7911,7.807,7.7989,7.8003,7.8068,7.8093,7.8112,7.8109,7.7812,0,0,0,0,0,7.7894,7.7942,7.7926,7.8018,7.8026,7.7996,7.8019,7.7988,7.7997,7.8001,7.7992,7.8003,7.8041,7.8067,7.8101,7.8211,7.8207,7.8264,7.8283,7.8299,7.8311,7.8367,7.8391,7.8134,7.8134,7.8134,0,0,7.797,7.7968,7.8002,7.804,7.8046,7.8095,7.8001,7.8057,7.8092,7.8009,7.8084,7.8078,7.8087,7.8182,7.8223,7.8182,7.8382,7.8313,7.8326,7.8329,7.838,7.8405,7.8426,7.8141,7.814,7.8139,0,0,7.8134,7.8139,7.8215,7.8222,7.8232,7.8212,7.823,7.8227,7.822,7.8294,7.8232,7.8274,7.8341,7.8349,7.8362,7.853,7.848,7.8543,7.8643,7.8698,7.8718,7.8736,7.8793,7.8815,7.8555,7.8556,7.8556,0,7.8228,7.8301,7.8259,7.8319,7.8337,7.8266,7.8341,7.835,7.8371,7.8384,7.8338,7.8421,7.8422,7.8516,7.8557,7.8571,7.8589,7.8541,7.8719,7.8736,7.8752,7.8806,7.8828,7.8563,7.8562,7.8561,7.8561,0,7.8413,7.8465,7.8525,7.8547,7.8572,7.864,7.8607,7.8638,7.8605,7.8589,7.8665,7.8664,7.8695,7.8716,7.8684,7.8806,7.878,7.8728,7.8645,7.8785,7.8834,7.8855,7.8573,7.8571,7.8569,7.8567,0,0,7.8647,7.8646,7.8668,7.8677,7.8683,7.8721,7.8786,7.8817,7.8843,7.886,7.8911,7.897,7.8922,7.8937,7.8905,7.8954,7.9084,7.8895,7.8895,7.8928,7.9216,7.9253,7.9278,7.9053,7.9056,7.9059,7.9214,0,7.8805,7.8915,7.888,7.899,7.9036,7.897,7.9025,7.9034,7.9022,7.9058,7.9044,7.9085,7.902,7.9028,7.9073,7.9059,7.9141,7.9048,7.9097,7.9099,7.9094,7.9304,7.9344,7.949,7.9234,7.9237,7.924,0,7.9004,7.9029,7.9145,7.9142,7.916,7.9211,7.9237,7.9273,7.9282,7.9269,7.9286,7.9245,7.9306,7.9226,7.9308,7.9246,7.9264,7.926,7.9265,7.9265,7.9176,7.9308,7.9536,7.9557,7.927,7.9268,7.9266,0,7.916,7.9223,7.9299,7.9309,7.9309,7.9346,7.9347,7.9351,7.9373,7.9395,7.9408,7.9438,7.9454,7.9477,7.9444,7.9389,7.9531,7.9448,7.952,7.9521,7.955,7.9548,7.9782,7.9568,7.9567,7.9567,7.9567,0,7.9338,7.9411,7.9369,7.9416,7.9495,7.9454,7.9532,7.9526,7.9531,7.9574,7.9519,7.9561,7.9516,7.9554,7.9529,7.96,7.9608,7.9598,7.959,7.9601,7.9602,7.961,7.9598,7.9573,7.9572,7.957,7.9569,0,7.9524,7.9499,7.9578,7.9572,7.9572,7.963,7.9624,7.9666,7.965,7.9706,7.9716,7.9691,7.9732,7.9703,7.9744,7.9727,7.9819,7.9799,7.9816,7.981,7.9882,7.9875,8.0127,8.0156,7.9926,7.9928,7.993,0,7.9638,7.9692,7.9692,7.9718,7.9723,7.9765,7.9786,7.9748,7.9772,7.9787,7.9827,7.9864,7.989,7.9959,7.9944,7.9975,7.9952,8.0039,7.9956,7.9966,7.995,7.9946,7.995,8.0054,8.0057,8.0059,8.0061,0,7.9843,7.9828,7.9861,7.9891,7.9918,7.994,7.9956,7.998,7.9941,7.9972,8.0013,8.0034,8.0076,8.0113,8.0138,8.0138,8.0093,8.0088,8.0105,8.0116,8.0123,8.0117,7.9859,8.0081,8.0079,8.0077,8.0076,8.0076,7.9994,8.0038,8.0045,8.0084,8.0093,8.011,8.0149,8.0138,8.0172,8.0204,8.0179,8.0229,8.0235,8.0264,8.027,8.0308,8.0272,8.0298,8.0304,8.0311,8.032,8.012,8.0312,8.0312,8.0311,8.0311,8.031,0,8.0193,8.0194,8.0231,8.0256,8.0286,8.0243,8.0259,8.0287,8.0331,8.0342,8.037,8.0417,8.0453,8.0441,8.0471,8.0504,8.0483,8.0513,8.0508,8.0509,8.0351,8.0331,8.0528,8.0528,8.0528,8.0528,8.0528,8.0528,8.03,8.0372,8.0359,8.0434,8.0434,8.0483,8.0495,8.051,8.0518,8.0574,8.0603,8.0595,8.0596,8.0627,8.0657,8.0652,8.0665,8.0702,8.0689,8.0542,8.052,8.0499,8.048,8.0705,8.0706,8.0843,8.0844,8.0845]}]]